This demonstration page uses our WeatherBlox Daily Observations layout. Learn more.

Left ArrowRight Arrow

47.50024, -111.30081

Hourly Observations for March 17, 2015

Temp ( °F °C ) Dew Point ( °F °C ) Humidity (%) Winds ( mph kmh ) Pressure ( in mb ) Visibility ( mi km ) Precip ( " mm )
12:53 am 00:53 Cloudy 33 0.6 30 -1.1 89 89 NNE 5 7 30.48 1032 10 16 0.00 0.00
1:53 am 01:53 Cloudy 33 0.6 30 -1.1 89 89 NE 8 13 30.46 1032 10 16 0.00 0.00
2:53 am 02:53 Cloudy 32 0 29 -1.7 88 88 E 7 11 30.45 1031 10 16 0.00 0.00
3:53 am 03:53 Cloudy 31 -0.6 29 -1.7 92 92 ENE 6 9 30.43 1031 10 16 0.00 0.00
4:53 am 04:53 Cloudy 31 -0.6 28 -2.2 89 89 NE 6 9 30.41 1030 10 16 0.00 0.00
5:34 am 05:34 Cloudy 30 -1 28 -2 93 93 NE 3 6 30.39 1029 10 16 0.00 0.00
5:53 am 05:53 Cloudy 30 -1.1 28 -2.2 92 92 NE 3 6 30.38 1029 10 16 0.00 0.00
6:53 am 06:53 Cloudy 29 -1.7 28 -2.2 96 96 NE 5 7 30.37 1029 10 16 0.00 0.00
7:53 am 07:53 Cloudy with Light Snow 30 -1.1 28 -2.2 92 92 E 3 6 30.35 1028 3 4 0.00 0.03
8:04 am 08:04 Cloudy with Light Snow 30 -1 28 -2 93 93 E 3 6 30.33 1027 2 3 0.00 0.00
8:18 am 08:18 Cloudy with Light Snow 30 -1 28 -2 93 93 Calm 30.33 1027 2 3 0.00 0.00
8:23 am 08:23 Cloudy with Light Snow 30 -1 28 -2 93 93 E 3 6 30.33 1027 2 3 0.01 0.25
8:32 am 08:32 Cloudy with Light Snow 30 -1 28 -2 93 93 E 3 6 30.33 1027 1 2 0.00 0.00
8:53 am 08:53 Cloudy with Light Snow 31 -0.6 30 -1.1 96 96 E 6 9 30.33 1027 1 2 0.01 0.25
9:34 am 09:34 Cloudy with Light Snow 30 -1 30 -1 100 100 E 8 13 30.33 1027 1 1 0.00 0.00
9:41 am 09:41 Cloudy with Light Snow 30 -1 30 -1 100 100 E 7 11 30.33 1027 1 2 0.01 0.25
9:53 am 09:53 Cloudy with Light Snow 31 -0.6 31 -0.6 100 100 E 7 11 30.32 1027 2 3 0.02 0.51
10:36 am 10:36 Cloudy with Light Snow 32 0 30 -1 93 93 E 9 15 30.27 1025 3 5 0.00 0.00
10:53 am 10:53 Cloudy with Light Snow 34 1.1 32 0 92 92 E 10 17 30.29 1026 3 5 0.00 0.03
11:19 am 11:19 Cloudy 34 1 34 1 100 100 E 12 19 30.27 1025 10 16 0.00 0.03
11:53 am 11:53 Cloudy 36 2.2 33 0.6 89 89 E 9 15 30.26 1025 9 14 0.00 0.03
12:24 pm 12:24 Cloudy 36 2 34 1 93 93 ENE 9 15 30.24 1024 10 16 0.00 0.00
12:32 pm 12:32 Cloudy 36 2 34 1 93 93 ENE 9 15 30.21 1023 10 16 0.00 0.00
12:53 pm 12:53 Cloudy 37 2.8 34 1.1 89 89 ENE 8 13 30.22 1024 10 16 0.00 0.03
1:31 pm 13:31 Cloudy 37 3 34 1 87 87 ENE 8 13 30.15 1021 10 16 0.00 0.03
1:53 pm 13:53 Cloudy 37 2.8 34 1.1 89 89 E 7 11 30.19 1023 10 16 0.00 0.03
2:14 pm 14:14 Cloudy 37 3 36 2 93 93 ENE 8 13 30.15 1021 10 16 0.00 0.00
2:31 pm 14:31 Cloudy 37 3 34 1 87 87 ENE 7 11 30.12 1020 10 16 0.00 0.00
2:53 pm 14:53 Cloudy 39 3.9 35 1.7 86 86 ENE 9 15 30.15 1021 10 16 0.00 0.00
3:38 pm 15:38 Cloudy 37 3 34 1 87 87 ENE 8 13 30.09 1019 10 16 0.00 0.00
3:53 pm 15:53 Cloudy 38 3.3 35 1.7 89 89 ENE 9 15 30.14 1021 10 16 0.00 0.00
4:53 pm 16:53 Cloudy 38 3.3 34 1.1 86 86 ENE 9 15 30.12 1020 10 16 0.00 0.00
5:17 pm 17:17 Cloudy 37 3 36 2 93 93 NE 9 15 30.06 1018 10 16 0.00 0.00
5:53 pm 17:53 Cloudy with Light Rain 37 2.8 35 1.7 93 93 NE 8 13 30.10 1019 10 16 0.00 0.03
6:53 pm 18:53 Cloudy with Light Rain 37 2.8 36 2.2 96 96 NNE 8 13 30.09 1019 10 16 0.00 0.03
7:50 pm 19:50 Cloudy with Light Rain 36 2 36 2 100 100 NE 8 13 30.03 1017 1 2 0.00 0.00
7:51 pm 19:51 Cloudy with Light Rain 36 2 36 2 100 100 NE 8 13 30.03 1017 1 2 0.00 0.00
7:55 pm 19:55 Cloudy with Light Rain 36 2 36 2 100 100 NE 8 13 30.03 1017 1 1 0.00 0.03
8:53 pm 20:53 Cloudy with Light Rain 35 1.7 35 1.7 100 100 ENE 8 13 30.08 1019 1 1 0.01 0.25
9:53 pm 21:53 Cloudy with Mist and Fog 35 1.7 34 1.1 96 96 NE 3 6 30.08 1019 1 1 0.01 0.25
10:13 pm 22:13 Mostly Cloudy with Fog 34 1 34 1 100 100 N 6 9 30.06 1018 0 0 0.00 0.00
10:53 pm 22:53 Mostly Cloudy with Fog 34 1.1 34 1.1 100 100 NNE 3 6 30.06 1018 1 1 0.00 0.00
11:12 pm 23:12 Mostly Cloudy with Fog 34 1 34 1 100 100 N 3 6 30.06 1018 0 0 0.00 0.00
11:53 pm 23:53 Mostly Cloudy with Fog 34 1.1 34 1.1 100 100 NNE 3 6 30.05 1018 0 0 0.00 0.00

Powered by AerisWeather